Time,TemperatureF,DewpointF,PressureIn,WindDirection,WindDirectionDegrees,WindSpeedMPH,WindSpeedGustMPH,Humidity,HourlyPrecipIn,Conditions,Clouds,dailyrainin,SoftwareType,DateUTC
2013-01-05 00:03:00,25.9,8.4,30.33,North,-999,0.0,0.0,47,0.00,,,-99.99,FreeWX 2.04,2013-01-05 05:03:00,
2013-01-05 00:13:00,25.9,9.3,30.33,North,-999,0.0,0.0,49,0.00,,,-99.99,FreeWX 2.04,2013-01-05 05:13:00,
2013-01-05 00:23:00,25.7,9.1,30.33,North,-999,0.0,0.0,49,0.00,,,-99.99,FreeWX 2.04,2013-01-05 05:23:00,
2013-01-05 00:33:00,25.9,10.2,30.33,North,-999,0.0,4.9,51,0.00,,,-99.99,FreeWX 2.04,2013-01-05 05:33:00,
2013-01-05 00:43:00,25.9,10.2,30.33,North,-999,0.0,3.1,51,0.00,,,-99.99,FreeWX 2.04,2013-01-05 05:43:00,
2013-01-05 00:53:00,25.9,10.8,30.36,North,-999,0.0,0.0,52,0.00,,,-99.99,FreeWX 2.04,2013-01-05 05:53:00,
2013-01-05 01:03:00,25.9,10.8,30.36,North,-999,0.0,0.0,52,0.00,,,-99.99,FreeWX 2.04,2013-01-05 06:03:00,
2013-01-05 01:13:00,25.7,10.6,30.36,North,-999,0.0,2.7,52,0.00,,,-99.99,FreeWX 2.04,2013-01-05 06:13:00,
2013-01-05 01:23:00,25.7,10.9,30.33,North,-999,0.0,4.5,53,0.00,,,-99.99,FreeWX 2.04,2013-01-05 06:23:00,
2013-01-05 01:33:00,25.5,10.8,30.33,North,-999,0.0,3.1,53,0.00,,,-99.99,FreeWX 2.04,2013-01-05 06:33:00,
2013-01-05 01:43:00,25.5,10.8,30.33,North,-999,0.0,2.7,53,0.00,,,-99.99,FreeWX 2.04,2013-01-05 06:43:00,
2013-01-05 01:53:00,25.2,10.4,30.33,North,-999,0.0,0.0,53,0.00,,,-99.99,FreeWX 2.04,2013-01-05 06:53:00,
2013-01-05 02:03:00,25.0,9.9,30.36,North,-999,0.0,0.0,52,0.00,,,-99.99,FreeWX 2.04,2013-01-05 07:03:00,
2013-01-05 02:13:00,24.6,9.5,30.36,North,-999,0.0,0.0,52,0.00,,,-99.99,FreeWX 2.04,2013-01-05 07:13:00,
2013-01-05 02:23:00,24.4,9.3,30.36,North,-999,0.0,0.0,52,0.00,,,-99.99,FreeWX 2.04,2013-01-05 07:23:00,
2013-01-05 02:33:00,24.3,9.1,30.36,North,-999,0.0,0.0,52,0.00,,,-99.99,FreeWX 2.04,2013-01-05 07:33:00,
2013-01-05 02:43:00,24.1,9.0,30.36,North,-999,0.0,0.0,52,0.00,,,-99.99,FreeWX 2.04,2013-01-05 07:43:00,
2013-01-05 02:53:00,24.1,9.9,30.36,North,-999,0.0,0.0,54,0.00,,,-99.99,FreeWX 2.04,2013-01-05 07:53:00,
2013-01-05 03:03:00,24.3,10.0,30.36,North,-999,0.0,0.0,54,0.00,,,-99.99,FreeWX 2.04,2013-01-05 08:03:00,
2013-01-05 03:13:00,24.3,10.0,30.36,North,-999,0.0,0.0,54,0.00,,,-99.99,FreeWX 2.04,2013-01-05 08:13:00,
2013-01-05 03:23:00,23.9,9.7,30.36,North,-999,0.0,0.0,54,0.00,,,-99.99,FreeWX 2.04,2013-01-05 08:23:00,
2013-01-05 03:33:00,23.9,9.7,30.36,North,-999,0.0,4.0,54,0.00,,,-99.99,FreeWX 2.04,2013-01-05 08:33:00,
2013-01-05 03:43:00,23.7,9.5,30.36,North,-999,0.0,0.0,54,0.00,,,-99.99,FreeWX 2.04,2013-01-05 08:43:00,
2013-01-05 03:53:00,23.5,9.3,30.36,North,-999,0.0,0.0,54,0.00,,,-99.99,FreeWX 2.04,2013-01-05 08:53:00,
2013-01-05 04:03:00,23.5,9.9,30.36,North,-999,0.0,3.6,55,0.00,,,-99.99,FreeWX 2.04,2013-01-05 09:03:00,
2013-01-05 04:13:00,23.2,9.5,30.36,North,-999,0.0,0.0,55,0.00,,,-99.99,FreeWX 2.04,2013-01-05 09:13:00,
2013-01-05 04:23:00,23.2,9.9,30.36,North,-999,0.0,0.0,56,0.00,,,-99.99,FreeWX 2.04,2013-01-05 09:23:00,
2013-01-05 04:33:00,23.2,9.9,30.36,North,-999,0.0,0.0,56,0.00,,,-99.99,FreeWX 2.04,2013-01-05 09:33:00,
2013-01-05 04:43:00,23.2,9.9,30.36,North,-999,0.0,0.0,56,0.00,,,-99.99,FreeWX 2.04,2013-01-05 09:43:00,
2013-01-05 04:53:00,22.8,9.5,30.36,North,-999,0.0,0.0,56,0.00,,,-99.99,FreeWX 2.04,2013-01-05 09:53:00,
2013-01-05 05:03:00,23.0,9.7,30.36,North,-999,0.0,0.0,56,0.00,,,-99.99,FreeWX 2.04,2013-01-05 10:03:00,
2013-01-05 05:13:00,22.8,9.5,30.36,North,-999,0.0,0.0,56,0.00,,,-99.99,FreeWX 2.04,2013-01-05 10:13:00,
2013-01-05 05:23:00,22.6,9.3,30.36,North,-999,0.0,0.0,56,0.00,,,-99.99,FreeWX 2.04,2013-01-05 10:23:00,
2013-01-05 05:33:00,22.5,9.5,30.36,North,-999,0.0,0.0,57,0.00,,,-99.99,FreeWX 2.04,2013-01-05 10:33:00,
2013-01-05 05:43:00,22.3,9.3,30.36,North,-999,0.0,0.0,57,0.00,,,-99.99,FreeWX 2.04,2013-01-05 10:43:00,
2013-01-05 05:53:00,22.1,9.1,30.36,North,-999,0.0,0.0,57,0.00,,,-99.99,FreeWX 2.04,2013-01-05 10:53:00,
2013-01-05 06:03:00,22.1,9.1,30.36,North,-999,0.0,0.0,57,0.00,,,-99.99,FreeWX 2.04,2013-01-05 11:03:00,
2013-01-05 06:13:00,22.1,9.1,30.36,North,-999,0.0,0.0,57,0.00,,,-99.99,FreeWX 2.04,2013-01-05 11:13:00,
2013-01-05 06:23:00,21.9,9.1,30.39,North,-999,0.0,0.0,57,0.00,,,-99.99,FreeWX 2.04,2013-01-05 11:23:00,
2013-01-05 06:33:00,21.7,9.0,30.36,North,-999,0.0,0.0,57,0.00,,,-99.99,FreeWX 2.04,2013-01-05 11:33:00,
2013-01-05 06:43:00,22.1,9.7,30.36,North,-999,0.0,0.0,58,0.00,,,-99.99,FreeWX 2.04,2013-01-05 11:43:00,
2013-01-05 06:53:00,22.1,10.0,30.36,North,-999,0.0,0.0,59,0.00,,,-99.99,FreeWX 2.04,2013-01-05 11:53:00,
2013-01-05 07:03:00,21.7,9.3,30.36,North,-999,0.0,0.0,58,0.00,,,-99.99,FreeWX 2.04,2013-01-05 12:03:00,
2013-01-05 07:13:00,21.7,9.3,30.36,North,-999,0.0,0.0,58,0.00,,,-99.99,FreeWX 2.04,2013-01-05 12:13:00,
2013-01-05 07:23:00,21.6,9.1,30.36,North,-999,0.0,0.0,58,0.00,,,-99.99,FreeWX 2.04,2013-01-05 12:23:00,
2013-01-05 07:33:00,21.6,9.1,30.36,North,-999,0.0,0.0,58,0.00,,,-99.99,FreeWX 2.04,2013-01-05 12:33:00,
2013-01-05 07:43:00,21.4,8.6,30.36,North,-999,0.0,0.0,57,0.00,,,-99.99,FreeWX 2.04,2013-01-05 12:43:00,
2013-01-05 07:53:00,21.6,9.1,30.36,North,-999,0.0,0.0,58,0.00,,,-99.99,FreeWX 2.04,2013-01-05 12:53:00,
2013-01-05 08:03:00,21.6,9.1,30.39,North,-999,0.0,0.0,58,0.00,,,-99.99,FreeWX 2.04,2013-01-05 13:03:00,
2013-01-05 08:13:00,21.6,8.8,30.39,North,-999,0.0,0.0,57,0.00,,,-99.99,FreeWX 2.04,2013-01-05 13:13:00,
2013-01-05 08:23:00,21.9,9.5,30.39,North,-999,0.0,0.0,58,0.00,,,-99.99,FreeWX 2.04,2013-01-05 13:23:00,
2013-01-05 08:33:00,22.3,9.3,30.39,North,-999,0.0,0.0,57,0.00,,,-99.99,FreeWX 2.04,2013-01-05 13:33:00,
2013-01-05 08:43:00,22.8,10.2,30.39,North,-999,0.0,0.0,58,0.00,,,-99.99,FreeWX 2.04,2013-01-05 13:43:00,
2013-01-05 08:53:00,23.0,10.0,30.39,North,-999,0.0,0.0,57,0.00,,,-99.99,FreeWX 2.04,2013-01-05 13:53:00,
2013-01-05 09:03:00,23.4,10.8,30.39,North,-999,0.0,0.0,58,0.00,,,-99.99,FreeWX 2.04,2013-01-05 14:03:00,
2013-01-05 09:13:00,24.6,12.0,30.39,North,-999,0.0,0.0,58,0.00,,,-99.99,FreeWX 2.04,2013-01-05 14:13:00,
2013-01-05 09:23:00,25.9,13.6,30.39,North,-999,0.0,0.0,59,0.00,,,-99.99,FreeWX 2.04,2013-01-05 14:23:00,
2013-01-05 09:33:00,27.1,14.7,30.39,North,-999,0.0,0.0,59,0.00,,,-99.99,FreeWX 2.04,2013-01-05 14:33:00,
2013-01-05 09:43:00,28.4,15.6,30.39,North,-999,0.0,0.0,58,0.00,,,-99.99,FreeWX 2.04,2013-01-05 14:43:00,
2013-01-05 09:53:00,29.8,16.5,30.39,North,-999,0.0,3.1,57,0.00,,,-99.99,FreeWX 2.04,2013-01-05 14:53:00,
2013-01-05 10:03:00,31.5,17.6,30.36,NNW,340,1.0,3.6,56,0.00,,,-99.99,FreeWX 2.04,2013-01-05 15:03:00,
2013-01-05 10:13:00,32.7,18.0,30.36,NW,304,2.0,3.6,54,0.00,,,-99.99,FreeWX 2.04,2013-01-05 15:13:00,
2013-01-05 10:23:00,33.6,17.4,30.36,NNW,348,2.0,5.8,51,0.00,,,-99.99,FreeWX 2.04,2013-01-05 15:23:00,
2013-01-05 10:33:00,34.7,18.0,30.36,NNW,339,2.0,4.0,50,0.00,,,-99.99,FreeWX 2.04,2013-01-05 15:33:00,
2013-01-05 10:43:00,35.2,14.5,30.36,North,354,2.0,5.8,42,0.00,,,-99.99,FreeWX 2.04,2013-01-05 15:43:00,
2013-01-05 10:53:00,35.4,12.9,30.36,North,356,3.0,7.8,39,0.00,,,-99.99,FreeWX 2.04,2013-01-05 15:53:00,
2013-01-05 11:03:00,36.7,13.5,30.36,North,2,3.0,7.8,38,0.00,,,-99.99,FreeWX 2.04,2013-01-05 16:03:00,
2013-01-05 11:13:00,37.0,11.3,30.36,North,3,2.0,6.7,34,0.00,,,-99.99,FreeWX 2.04,2013-01-05 16:13:00,
2013-01-05 11:23:00,37.8,12.6,30.33,NNW,346,3.0,6.9,35,0.00,,,-99.99,FreeWX 2.04,2013-01-05 16:23:00,
2013-01-05 11:33:00,38.5,9.9,30.33,NE,36,2.0,5.4,30,0.00,,,-99.99,FreeWX 2.04,2013-01-05 16:33:00,
2013-01-05 11:43:00,39.2,10.4,30.33,NNE,18,2.0,5.4,30,0.00,,,-99.99,FreeWX 2.04,2013-01-05 16:43:00,
2013-01-05 11:53:00,39.9,11.8,30.33,North,0,3.0,5.8,31,0.00,,,-99.99,FreeWX 2.04,2013-01-05 16:53:00,
2013-01-05 12:03:00,40.5,10.8,30.33,North,2,4.0,6.7,29,0.00,,,-99.99,FreeWX 2.04,2013-01-05 17:03:00,
2013-01-05 12:13:00,41.0,10.4,30.33,NNW,348,3.0,6.7,28,0.00,,,-99.99,FreeWX 2.04,2013-01-05 17:13:00,
2013-01-05 12:23:00,41.7,11.8,30.30,North,352,3.0,6.9,29,0.00,,,-99.99,FreeWX 2.04,2013-01-05 17:23:00,
2013-01-05 12:33:00,42.1,11.3,30.30,North,359,4.0,7.8,28,0.00,,,-99.99,FreeWX 2.04,2013-01-05 17:33:00,
2013-01-05 12:43:00,42.8,12.0,30.30,North,355,3.0,6.9,28,0.00,,,-99.99,FreeWX 2.04,2013-01-05 17:43:00,
2013-01-05 12:53:00,43.2,12.4,30.30,NNW,346,4.0,7.8,28,0.00,,,-99.99,FreeWX 2.04,2013-01-05 17:53:00,
2013-01-05 13:03:00,43.7,10.2,30.27,North,0,4.0,6.7,25,0.00,,,-99.99,FreeWX 2.04,2013-01-05 18:03:00,
2013-01-05 13:13:00,43.9,10.4,30.27,North,350,4.0,8.3,25,0.00,,,-99.99,FreeWX 2.04,2013-01-05 18:13:00,
2013-01-05 13:23:00,44.4,10.8,30.27,NNW,347,5.0,9.6,25,0.00,,,-99.99,FreeWX 2.04,2013-01-05 18:23:00,
2013-01-05 13:33:00,44.4,8.1,30.27,North,352,4.0,9.2,22,0.00,,,-99.99,FreeWX 2.04,2013-01-05 18:33:00,
2013-01-05 13:43:00,45.0,8.4,30.27,NNE,25,4.0,7.4,22,0.00,,,-99.99,FreeWX 2.04,2013-01-05 18:43:00,
2013-01-05 13:53:00,45.1,8.6,30.27,North,10,4.0,9.6,22,0.00,,,-99.99,FreeWX 2.04,2013-01-05 18:53:00,
2013-01-05 14:03:00,44.6,8.1,30.24,North,350,4.0,7.4,22,0.00,,,-99.99,FreeWX 2.04,2013-01-05 19:03:00,
2013-01-05 14:13:00,45.7,9.0,30.24,North,0,4.0,7.4,22,0.00,,,-99.99,FreeWX 2.04,2013-01-05 19:13:00,
2013-01-05 14:23:00,45.1,8.6,30.24,NNE,23,4.0,6.7,22,0.00,,,-99.99,FreeWX 2.04,2013-01-05 19:23:00,
2013-01-05 14:33:00,44.8,8.2,30.24,North,356,3.0,7.4,22,0.00,,,-99.99,FreeWX 2.04,2013-01-05 19:33:00,
2013-01-05 14:43:00,44.8,8.2,30.24,North,355,4.0,7.4,22,0.00,,,-99.99,FreeWX 2.04,2013-01-05 19:43:00,
2013-01-05 14:53:00,45.1,8.6,30.24,North,354,4.0,6.9,22,0.00,,,-99.99,FreeWX 2.04,2013-01-05 19:53:00,
2013-01-05 15:03:00,45.1,8.6,30.24,NNE,18,2.0,6.9,22,0.00,,,-99.99,FreeWX 2.04,2013-01-05 20:03:00,
2013-01-05 15:13:00,44.4,8.1,30.24,NE,52,4.0,7.8,22,0.00,,,-99.99,FreeWX 2.04,2013-01-05 20:13:00,
2013-01-05 15:23:00,44.6,8.1,30.21,North,354,3.0,6.9,22,0.00,,,-99.99,FreeWX 2.04,2013-01-05 20:23:00,
2013-01-05 15:33:00,43.7,8.4,30.24,NNE,30,4.0,7.4,23,0.00,,,-99.99,FreeWX 2.04,2013-01-05 20:33:00,
2013-01-05 15:43:00,43.9,7.5,30.24,North,355,2.0,6.7,22,0.00,,,-99.99,FreeWX 2.04,2013-01-05 20:43:00,
2013-01-05 15:53:00,43.5,8.2,30.21,NE,37,2.0,4.0,23,0.00,,,-99.99,FreeWX 2.04,2013-01-05 20:53:00,
2013-01-05 16:03:00,43.0,7.7,30.21,North,349,3.0,6.3,23,0.00,,,-99.99,FreeWX 2.04,2013-01-05 21:03:00,
2013-01-05 16:13:00,42.6,7.5,30.21,NNW,347,1.0,5.4,23,0.00,,,-99.99,FreeWX 2.04,2013-01-05 21:13:00,
2013-01-05 16:23:00,42.3,7.2,30.21,North,352,3.0,6.3,23,0.00,,,-99.99,FreeWX 2.04,2013-01-05 21:23:00,
2013-01-05 16:33:00,42.3,7.2,30.21,North,-999,0.0,4.5,23,0.00,,,-99.99,FreeWX 2.04,2013-01-05 21:33:00,
2013-01-05 16:43:00,42.1,7.0,30.21,North,3,1.0,5.8,23,0.00,,,-99.99,FreeWX 2.04,2013-01-05 21:43:00,
2013-01-05 16:53:00,41.7,6.6,30.21,North,351,1.0,5.4,23,0.00,,,-99.99,FreeWX 2.04,2013-01-05 21:53:00,
2013-01-05 17:03:00,41.5,6.6,30.21,NNE,18,1.0,4.5,23,0.00,,,-99.99,FreeWX 2.04,2013-01-05 22:03:00,
2013-01-05 17:13:00,41.0,6.1,30.21,North,3,1.0,5.8,23,0.00,,,-99.99,FreeWX 2.04,2013-01-05 22:13:00,
2013-01-05 17:23:00,40.6,5.7,30.18,North,-999,0.0,4.0,23,0.00,,,-99.99,FreeWX 2.04,2013-01-05 22:23:00,
2013-01-05 17:33:00,40.3,5.5,30.21,North,-999,0.0,0.0,23,0.00,,,-99.99,FreeWX 2.04,2013-01-05 22:33:00,
2013-01-05 17:43:00,39.9,7.9,30.21,North,-999,0.0,0.0,26,0.00,,,-99.99,FreeWX 2.04,2013-01-05 22:43:00,
2013-01-05 17:54:00,39.9,7.9,30.21,North,-999,0.0,0.0,26,0.00,,,-99.99,FreeWX 2.04,2013-01-05 22:54:00,
2013-01-05 18:04:00,39.7,7.7,30.21,North,-999,0.0,0.0,26,0.00,,,-99.99,FreeWX 2.04,2013-01-05 23:04:00,
2013-01-05 18:14:00,39.6,7.5,30.21,North,-999,0.0,3.1,26,0.00,,,-99.99,FreeWX 2.04,2013-01-05 23:14:00,
2013-01-05 18:24:00,39.4,7.3,30.21,North,-999,0.0,3.6,26,0.00,,,-99.99,FreeWX 2.04,2013-01-05 23:24:00,
2013-01-05 18:34:00,39.2,7.2,30.21,North,-999,0.0,2.7,26,0.00,,,-99.99,FreeWX 2.04,2013-01-05 23:34:00,
2013-01-05 18:44:00,38.8,8.6,30.21,North,357,1.0,4.0,28,0.00,,,-99.99,FreeWX 2.04,2013-01-05 23:44:00,
2013-01-05 18:54:00,38.8,10.0,30.18,North,-999,0.0,0.0,30,0.00,,,-99.99,FreeWX 2.04,2013-01-05 23:54:00,
2013-01-05 19:04:00,38.8,10.0,30.21,North,-999,0.0,3.1,30,0.00,,,-99.99,FreeWX 2.04,2013-01-06 00:04:00,
2013-01-05 19:14:00,39.0,9.5,30.21,North,-999,0.0,3.1,29,0.00,,,-99.99,FreeWX 2.04,2013-01-06 00:14:00,
2013-01-05 19:24:00,38.8,10.0,30.21,North,351,1.0,4.9,30,0.00,,,-99.99,FreeWX 2.04,2013-01-06 00:24:00,
2013-01-05 19:34:00,38.8,9.3,30.21,NNW,341,1.0,4.0,29,0.00,,,-99.99,FreeWX 2.04,2013-01-06 00:34:00,
2013-01-05 19:44:00,38.8,10.0,30.21,North,-999,0.0,4.5,30,0.00,,,-99.99,FreeWX 2.04,2013-01-06 00:44:00,
2013-01-05 19:54:00,38.8,9.3,30.21,North,-999,0.0,4.0,29,0.00,,,-99.99,FreeWX 2.04,2013-01-06 00:54:00,
2013-01-05 20:04:00,38.8,9.3,30.18,North,-999,0.0,0.0,29,0.00,,,-99.99,FreeWX 2.04,2013-01-06 01:04:00,
2013-01-05 20:14:00,38.8,9.3,30.18,North,2,1.0,4.9,29,0.00,,,-99.99,FreeWX 2.04,2013-01-06 01:14:00,
2013-01-05 20:24:00,38.8,9.3,30.21,North,-999,0.0,4.5,29,0.00,,,-99.99,FreeWX 2.04,2013-01-06 01:24:00,
2013-01-05 20:34:00,38.8,9.3,30.21,North,354,1.0,4.0,29,0.00,,,-99.99,FreeWX 2.04,2013-01-06 01:34:00,
2013-01-05 20:44:00,38.7,9.1,30.21,NNW,347,1.0,4.0,29,0.00,,,-99.99,FreeWX 2.04,2013-01-06 01:44:00,
2013-01-05 20:54:00,38.7,9.1,30.21,North,-999,0.0,3.1,29,0.00,,,-99.99,FreeWX 2.04,2013-01-06 01:54:00,
2013-01-05 21:14:00,38.5,9.0,30.21,North,-999,0.0,4.0,29,0.00,,,-99.99,FreeWX 2.04,2013-01-06 02:14:00,
2013-01-05 21:24:00,38.5,9.0,30.21,North,-999,0.0,3.1,29,0.00,,,-99.99,FreeWX 2.04,2013-01-06 02:24:00,
2013-01-05 21:34:00,38.5,9.0,30.18,North,-999,0.0,3.1,29,0.00,,,-99.99,FreeWX 2.04,2013-01-06 02:34:00,
2013-01-05 21:44:00,38.3,9.7,30.18,North,-999,0.0,0.0,30,0.00,,,-99.99,FreeWX 2.04,2013-01-06 02:44:00,
2013-01-05 21:54:00,38.1,9.5,30.18,North,-999,0.0,3.1,30,0.00,,,-99.99,FreeWX 2.04,2013-01-06 02:54:00,
2013-01-05 22:04:00,37.9,9.3,30.18,North,-999,0.0,0.0,30,0.00,,,-99.99,FreeWX 2.04,2013-01-06 03:04:00,
2013-01-05 22:14:00,37.9,9.3,30.18,North,-999,0.0,0.0,30,0.00,,,-99.99,FreeWX 2.04,2013-01-06 03:14:00,
2013-01-05 22:24:00,38.1,10.2,30.18,North,-999,0.0,3.6,31,0.00,,,-99.99,FreeWX 2.04,2013-01-06 03:24:00,
2013-01-05 22:34:00,37.9,10.0,30.18,North,-999,0.0,3.6,31,0.00,,,-99.99,FreeWX 2.04,2013-01-06 03:34:00,
2013-01-05 22:44:00,37.8,9.9,30.18,NNW,344,1.0,4.9,31,0.00,,,-99.99,FreeWX 2.04,2013-01-06 03:44:00,
2013-01-05 22:54:00,37.8,9.9,30.18,North,-999,0.0,3.1,31,0.00,,,-99.99,FreeWX 2.04,2013-01-06 03:54:00,
2013-01-05 23:04:00,37.8,9.9,30.18,North,-999,0.0,3.1,31,0.00,,,-99.99,FreeWX 2.04,2013-01-06 04:04:00,
2013-01-05 23:14:00,37.9,10.0,30.18,North,-999,0.0,3.1,31,0.00,,,-99.99,FreeWX 2.04,2013-01-06 04:14:00,
2013-01-05 23:24:00,37.8,9.9,30.18,North,-999,0.0,2.7,31,0.00,,,-99.99,FreeWX 2.04,2013-01-06 04:24:00,
2013-01-05 23:34:00,37.8,9.9,30.18,North,-999,0.0,3.1,31,0.00,,,-99.99,FreeWX 2.04,2013-01-06 04:34:00,
2013-01-05 23:44:00,37.6,9.7,30.18,North,-999,0.0,3.1,31,0.00,,,-99.99,FreeWX 2.04,2013-01-06 04:44:00,
2013-01-05 23:54:00,37.6,10.4,30.18,North,-999,0.0,4.5,32,0.00,,,-99.99,FreeWX 2.04,2013-01-06 04:54:00,